Simultaneous Nadir Overpasses (SNOs) Predictions

Prediction of SNOs between AQUA and GOES-15 Satellite Orbit:

Table of predicted SNOs for the next 14.0 days since TLE Epoch: 2/28/2015
Index Date Time (AQUA) AQUA Lat,Lon GOES-15 Lat,Lon Distance(km) Time Diff (sec)
1 02/28/2015 10:20:25 -0.97,-131.17 -0.03,-135.41 482.76 80
2 02/28/2015 22:41:48 -0.19,-136.35 0.03,-135.40 108.67 80
3 03/02/2015 22:29:39 0.43,-133.40 0.02,-135.40 226.41 80
4 03/03/2015 10:50:55 0.67,-138.56 -0.02,-135.41 358.59 80
5 03/05/2015 10:38:46 0.02,-135.61 -0.02,-135.40 23.95 80
6 03/07/2015 10:26:36 -0.59,-132.65 -0.02,-135.38 310.31 80
7 03/07/2015 22:48:00 -0.54,-137.84 0.02,-135.36 282.32 80
8 03/09/2015 22:35:50 0.11,-134.88 0.02,-135.34 51.54 80
9 03/11/2015 22:23:39 0.72,-131.92 0.02,-135.31 384.82 80
10 03/12/2015 10:44:55 0.36,-137.08 -0.01,-135.32 199.97 80




NCC Satellite Simultaneous Nadir Overpasses (SNOs) Prediction Service
